Tracking 20232 objects as of 18-Jan-2020
HD Live streaming from Space Station
objects crossing your sky now

NOAA 16 DEB

Track NOAA 16 DEB now!
10-day predictions


NORAD ID: 42406
Int'l Code: 2000-055TA
Perigee: 837.7 km
Apogee: 865.2 km
Inclination: 98.8 °
Period: 101.8 minutes
Semi major axis: 7222 km
RCS: Unknown
Launch date: September 21, 2000
Source: United States (US)
Launch site: AIR FORCE WESTERN TEST RANGE (AFWTR)

Note: This is SATELLITE DEBRIS
aabbcc
Your satellite tracking list
Your tracking list is empty




NASA's NSSDC Master Catalog

Two Line Element Set (TLE):
1 42406U 00055TA  20017.43330903  .00000122  00000-0  86589-4 0  9996
2 42406  98.7992  96.1510 0019039 184.9984 175.1002 14.14408872197360
Source of the keplerian elements: AFSPC